[[{"header":{"parameterUnit":"m.s-1","parameterCategory":1,"la1":30.2991,"la2":30.254,"lo1":-89.0895,"lo2":-89.0444,"dy":0.0017,"dx":0.0017,"nx":28,"ny":28,"refTime":"2024-06-09T21:00:00:Z","depth":0,"parameterNumber":2,"parameterNumberName":"U-component_of_WINDS"},"data":[0,0,0,0,0,0,0,0,0,0,0,0,0,0,0,0,0,0,0,0,0,0,0,0,0,0,0,0,0,0,0,0,0,0,0,0,0,0,0,0,0,0,0,0,0,0,0,0,0,0,0,0,0,0,0,0,0,0,1.5839,1.5841,0,1.6037,1.6039,1.6041,1.6113,1.6113,1.6112,1.6111,1.6314,1.632,1.6326,0,0,0,0,0,0,0,0,0,0,0,0,0,1.5522,1.5527,1.5838,1.5841,1.5843,1.6036,1.6039,1.6042,1.6114,1.6113,1.6112,1.6111,1.6312,1.632,1.6327,0,0,0,0,0,0,0,0,0,0,0,0,0,1.5683,1.5529,1.5838,1.5902,1.591,1.6036,1.6039,1.6043,1.6114,1.6113,1.6112,1.6111,1.631,1.6319,1.6328,1.6404,0,0,1.6356,1.6359,0,0,0,0,0,0,0,0,1.5674,1.5695,1.589,1.5898,1.5907,1.6049,1.6002,1.6164,1.6114,1.6036,1.6111,1.611,1.6227,1.6243,1.6282,1.6414,1.6422,1.6356,1.6362,1.6366,1.6368,0,0,0,0,0,0,0,1.5663,1.5687,1.5917,1.5893,1.5903,1.5921,1.5943,1.6033,1.6135,1.6043,1.6049,1.6071,1.6231,1.6273,1.6288,1.6425,1.6356,1.6364,1.637,1.6373,1.6629,1.6631,0,0,0,0,0,0,1.5641,1.5677,1.5911,1.5923,1.5786,1.5928,1.5952,1.6005,1.6134,1.6153,1.6072,1.6074,1.6258,1.6277,1.6295,1.6393,1.6366,1.6374,1.6379,1.6628,1.663,1.6631,0,0,0,0,0,0,1.5634,1.5661,1.5903,1.5802,1.5834,1.5934,1.5993,1.6009,1.6051,1.6156,1.6175,1.6096,1.6258,1.6282,1.6377,1.6401,1.6378,1.6386,1.6626,1.6629,1.663,1.6589,0,0,0,0,0,0,1.5624,1.5658,1.5688,1.5802,1.5839,1.598,1.5994,1.6014,1.6067,1.6071,1.6184,1.6201,1.6259,1.6363,1.6385,1.6413,1.6393,1.6625,1.6627,1.663,1.6588,1.6589,1.659,0,0,0,0,0,1.5613,1.5668,1.5689,1.5717,1.5878,1.5982,1.6003,1.6069,1.6068,1.6099,1.6167,1.6198,1.6395,1.6372,1.6398,1.6428,1.6623,1.6627,1.663,1.6588,1.6589,1.659,0,0,0,0,0,0,1.5554,1.5684,1.5709,1.5803,1.5881,1.5994,1.6035,1.6068,1.6147,1.6148,1.6226,1.6251,1.6339,1.6394,1.6366,1.6509,1.6511,1.6519,1.647,1.6472,1.6473,1.6457,1.6401,0,0,0,0,0,1.5552,1.5625,1.5735,1.5807,1.5845,1.5933,1.598,1.6025,1.6108,1.6142,1.6216,1.6296,1.6376,1.6427,1.6507,1.6597,1.6622,1.6631,1.6631,1.6631,1.6638,1.6689,1.6694,1.6641,1.6641,1.6641,0,0,1.5549,1.5629,1.567,1.5798,1.5863,1.5937,1.596,1.6037,1.6093,1.6154,1.6247,1.6304,1.6399,1.6491,1.6536,1.6539,1.6658,1.6635,1.6635,1.6641,1.6693,1.6698,1.6702,1.6643,1.6643,1.6643,0,0,1.558,1.5648,1.5716,1.5781,1.588,1.5939,1.5955,1.6063,1.6104,1.6199,1.6246,1.6313,1.6449,1.6515,1.6566,1.6623,1.6654,1.6647,1.665,1.6699,1.6704,1.6708,1.6728,1.6734,1.6653,1.6653,1.6653,0,1.5563,1.5677,1.5746,1.5821,1.5876,1.5934,1.6003,1.6064,1.6183,1.622,1.6222,1.6395,1.6463,1.6571,1.6585,1.6624,1.6645,1.6634,1.6697,1.6702,1.6707,1.6727,1.6734,1.6651,1.6651,1.6651,1.6652,0,1.5651,1.5729,1.5771,1.5886,1.5946,1.6017,1.6098,1.615,1.6189,1.6246,1.6343,1.6426,1.6524,1.6553,1.6592,1.6667,1.6666,1.6682,1.6685,1.6709,1.6729,1.6737,1.6649,1.6649,1.665,1.665,0,0,1.5649,1.5802,1.5817,1.587,1.5984,1.6045,1.612,1.6215,1.6258,1.6339,1.6403,1.6517,1.6533,1.6591,1.6638,1.6681,1.6721,1.6692,1.6696,1.6694,1.6809,1.6795,1.6803,1.6743,1.6744,1.6746,1.6801,0,1.5695,1.5831,1.5896,1.6003,1.6076,1.6133,1.6198,1.6275,1.6331,1.6401,1.6464,1.6543,1.6558,1.6593,1.6639,1.6706,1.6745,1.6703,1.6803,1.6805,1.6776,1.6814,1.68,1.6848,1.6809,1.681,1.6811,0,1.5767,1.5848,1.5962,1.6068,1.6101,1.6158,1.6251,1.6317,1.6406,1.6444,1.6509,1.6554,1.6635,1.6633,1.6745,1.6715,1.676,1.6799,1.6802,1.6814,1.6809,1.6825,1.6865,1.6871,1.6824,1.6823,1.6822,0,1.5754,1.5892,1.5978,1.6021,1.6147,1.6186,1.624,1.6328,1.6381,1.6463,1.6498,1.6587,1.6636,1.6704,1.6773,1.6765,1.6878,1.6882,1.6912,1.691,1.6932,1.693,1.6978,1.6962,1.6962,1.6962,1.6961,0,1.5798,1.5865,1.5974,1.6026,1.6104,1.6179,1.6253,1.6312,1.6389,1.6454,1.651,1.6569,1.6657,1.6728,1.6782,1.6866,1.6888,1.6921,1.6934,1.6916,1.6911,1.6945,1.6944,1.6964,1.6963,1.6963,1.6962,0,1.5796,1.5872,1.5969,1.6081,1.611,1.6162,1.6258,1.6311,1.6371,1.6452,1.6476,1.6569,1.6655,1.6731,1.6845,1.6881,1.6968,1.6985,1.6938,1.6945,1.697,1.6967,1.7042,1.7056,1.703,1.703,1.703,0,1.5819,1.5872,1.599,1.6037,1.6091,1.6167,1.6222,1.6298,1.6353,1.6458,1.6499,1.6589,1.6666,1.6801,1.6879,1.6966,1.6986,1.7006,1.6999,1.6979,1.6985,1.6981,1.6987,1.7006,1.7005,1.7005,1.7005,0,1.5851,1.5886,1.5963,1.6054,1.6118,1.6192,1.6269,1.6305,1.6395,1.6454,1.6543,1.6602,1.6719,1.6808,1.6904,1.696,1.6998,1.7007,1.7019,1.7,1.697,1.6986,1.6937,1.7005,1.7005,1.7005,1.7005,1.7005,1.5862,1.5912,1.6003,1.6087,1.6153,1.6223,1.6279,1.6345,1.6421,1.6522,1.6563,1.6653,1.6741,1.6875,1.6931,1.7003,1.7009,1.7026,1.703,1.7033,1.7029,1.6959,1.7021,1.7021,1.7021,1.7021,1.7021,0,1.5897,1.5958,1.6035,1.614,1.6207,1.6237,1.6323,1.6376,1.6456,1.6535,1.6609,1.6711,1.6798,1.6883,1.6974,1.7016,1.7035,1.7037,1.7035,1.7047,1.7019,1.6999,1.702,1.702,1.702,1.702,1.702,1.702,1.5923,1.6009,1.6055,1.6174,1.6236,1.6325,1.6372,1.6437,1.65,1.6612,1.6685,1.674,1.6821,1.6919,1.7,1.7023,1.7054,1.7051,1.7078,1.705,1.7049,1.7048,1.703,1.7057,1.7057,1.71,1.7101,1.7101]},{"header":{"parameterUnit":"m.s-1","parameterCategory":1,"la1":30.2991,"la2":30.254,"lo1":-89.0895,"lo2":-89.0444,"dy":0.0017,"dx":0.0017,"nx":28,"ny":28,"refTime":"2024-06-09T21:00:00:Z","depth":0,"parameterNumber":3,"parameterNumberName":"V-component_of_WINDS"},"data":[0,0,0,0,0,0,0,0,0,0,0,0,0,0,0,0,0,0,0,0,0,0,0,0,0,0,0,0,0,0,0,0,0,0,0,0,0,0,0,0,0,0,0,0,0,0,0,0,0,0,0,0,0,0,0,0,0,0,4.6179,4.6179,0,4.618,4.618,4.618,4.6132,4.6131,4.6129,4.6128,4.6129,4.613,4.6131,0,0,0,0,0,0,0,0,0,0,0,0,0,4.6133,4.6134,4.6179,4.6179,4.6179,4.618,4.618,4.618,4.6132,4.6131,4.6129,4.6128,4.6128,4.613,4.6131,0,0,0,0,0,0,0,0,0,0,0,0,0,4.6146,4.6135,4.6179,4.6155,4.6153,4.618,4.618,4.618,4.6132,4.6131,4.6129,4.6127,4.6128,4.613,4.6131,4.6181,0,0,4.6137,4.6138,0,0,0,0,0,0,0,0,4.6145,4.6147,4.6158,4.6157,4.6154,4.6154,4.6164,4.6181,4.6133,4.614,4.6128,4.6126,4.6139,4.6139,4.6144,4.6182,4.6182,4.6137,4.6138,4.6139,4.614,0,0,0,0,0,0,0,4.6144,4.6147,4.6179,4.6159,4.6156,4.6144,4.6144,4.6167,4.615,4.6139,4.6136,4.6137,4.6137,4.6142,4.6144,4.6182,4.6137,4.6139,4.614,4.6141,4.626,4.6262,0,0,0,0,0,0,4.6147,4.6147,4.6179,4.6179,4.6145,4.6146,4.6146,4.6156,4.615,4.6147,4.6138,4.6135,4.614,4.6142,4.6143,4.6202,4.6139,4.6141,4.6142,4.6258,4.6261,4.6263,0,0,0,0,0,0,4.6146,4.615,4.6179,4.6162,4.6165,4.6149,4.6161,4.6157,4.6162,4.6149,4.6146,4.6147,4.6139,4.6141,4.6172,4.6201,4.6142,4.6143,4.6256,4.6259,4.6262,4.6318,0,0,0,0,0,0,4.6145,4.615,4.6169,4.6163,4.6166,4.6209,4.6163,4.6158,4.6166,4.616,4.6156,4.6154,4.6137,4.617,4.6174,4.6202,4.6145,4.6253,4.6257,4.6261,4.6314,4.6323,4.6331,0,0,0,0,0,4.6144,4.6185,4.617,4.6175,4.6189,4.621,4.6212,4.6193,4.6168,4.6187,4.6179,4.6154,4.6197,4.6174,4.6178,4.6207,4.6251,4.6256,4.6261,4.631,4.6321,4.6331,0,0,0,0,0,0,4.6194,4.6183,4.6167,4.6208,4.621,4.6202,4.6225,4.6205,4.6214,4.6209,4.6185,4.6184,4.622,4.6216,4.619,4.6255,4.622,4.6226,4.6256,4.6266,4.6275,4.6275,4.6146,0,0,0,0,0,4.621,4.6228,4.6218,4.6254,4.6257,4.6241,4.6249,4.6234,4.6236,4.6236,4.623,4.6233,4.6247,4.6256,4.6269,4.6313,4.6312,4.6336,4.6344,4.6351,4.6356,4.638,4.639,4.6278,4.6278,4.6278,0,0,4.6243,4.624,4.6252,4.6265,4.6265,4.6284,4.6242,4.6264,4.6278,4.624,4.6269,4.6265,4.6266,4.6304,4.6321,4.6303,4.6387,4.6357,4.6363,4.6364,4.6386,4.6396,4.6406,4.6282,4.6281,4.6281,0,0,4.6313,4.6312,4.6343,4.6344,4.6345,4.6334,4.6342,4.6337,4.6333,4.6362,4.6334,4.635,4.6375,4.6376,4.6381,4.6452,4.643,4.6457,4.6501,4.6524,4.6533,4.6541,4.6566,4.6575,4.6462,4.6462,4.6462,0,4.6354,4.6381,4.6361,4.6385,4.6391,4.6358,4.6389,4.6391,4.6396,4.6401,4.6381,4.6411,4.6409,4.6448,4.6465,4.647,4.6478,4.6457,4.6533,4.6541,4.6548,4.6572,4.6581,4.6465,4.6465,4.6465,4.6464,0,4.6431,4.6451,4.6476,4.6482,4.6491,4.6518,4.6502,4.6513,4.6498,4.6489,4.652,4.6517,4.6528,4.6536,4.6521,4.6572,4.6561,4.6538,4.6501,4.6562,4.6584,4.6593,4.647,4.6469,4.6468,4.6467,0,0,4.6532,4.6527,4.6537,4.6539,4.6538,4.6553,4.6579,4.659,4.6601,4.6605,4.6626,4.6649,4.6627,4.6632,4.6617,4.6637,4.6694,4.6611,4.6611,4.6626,4.6751,4.6768,4.6779,4.6679,4.6681,4.6682,4.675,0,4.66,4.6644,4.6627,4.6672,4.669,4.6659,4.6682,4.6684,4.6677,4.6691,4.6683,4.6699,4.6669,4.6672,4.6691,4.6683,4.6718,4.6678,4.6698,4.6699,4.6699,4.679,4.6809,4.6873,4.6759,4.676,4.6761,0,4.6685,4.6693,4.6741,4.6737,4.6744,4.6765,4.6774,4.6788,4.6789,4.6783,4.6789,4.6769,4.6794,4.6759,4.6793,4.6765,4.6773,4.677,4.6772,4.6773,4.6734,4.6793,4.6893,4.6903,4.6775,4.6774,4.6773,0,4.6753,4.6777,4.6808,4.6812,4.6808,4.6823,4.6823,4.6822,4.683,4.6838,4.6843,4.6854,4.686,4.6869,4.6852,4.6828,4.6889,4.6852,4.6884,4.6884,4.6897,4.6897,4.7,4.6903,4.6903,4.6903,4.6902,0,4.683,4.6861,4.6839,4.6859,4.6892,4.6871,4.6904,4.69,4.69,4.6918,4.6892,4.6909,4.6887,4.6902,4.689,4.692,4.6923,4.6918,4.6914,4.692,4.6921,4.6924,4.6919,4.6905,4.6905,4.6904,4.6904,0,4.6913,4.69,4.6932,4.6926,4.6926,4.695,4.6945,4.6963,4.6954,4.6977,4.6981,4.6968,4.6984,4.6969,4.6985,4.6976,4.7016,4.7006,4.7016,4.7013,4.7046,4.7043,4.7154,4.7168,4.7063,4.7064,4.7065,0,4.6962,4.6985,4.6982,4.6992,4.6993,4.701,4.7019,4.7,4.7009,4.7013,4.703,4.7045,4.7055,4.7083,4.7074,4.7086,4.7076,4.7114,4.7078,4.7083,4.7076,4.7075,4.7077,4.7122,4.7123,4.7124,4.7125,0,4.7052,4.7045,4.7058,4.707,4.708,4.7088,4.7094,4.7104,4.7084,4.7096,4.7113,4.7121,4.7138,4.7152,4.7162,4.716,4.714,4.7137,4.7144,4.7151,4.7155,4.7153,4.7036,4.7134,4.7133,4.7132,4.7132,4.7131,4.712,4.7138,4.714,4.7155,4.7158,4.7164,4.718,4.7174,4.7188,4.72,4.7188,4.7208,4.7209,4.722,4.7221,4.7237,4.722,4.7232,4.7235,4.7238,4.7243,4.7153,4.7238,4.7238,4.7238,4.7237,4.7237,0,4.7208,4.7207,4.7222,4.7231,4.7244,4.7224,4.7229,4.724,4.7259,4.7262,4.7273,4.7293,4.7307,4.73,4.7312,4.7326,4.7317,4.733,4.7328,4.7328,4.7256,4.7248,4.7337,4.7337,4.7337,4.7337,4.7337,4.7337,4.7256,4.7286,4.7279,4.7311,4.731,4.733,4.7335,4.734,4.7343,4.7366,4.7378,4.7373,4.7372,4.7384,4.7396,4.7394,4.7399,4.7416,4.741,4.7343,4.7333,4.7324,4.7316,4.7417,4.7418,4.748,4.7481,4.7482]}]]